{"data":{"norad_id":65855,"epoch":"2026-09-20T06:31:04.126656Z","epoch_age_seconds":125833,"freshness":"FRESH","line1":"1 65855U 25223B   26263.27157554  .00020791  00000+0  62477-3 0  9995","line2":"2 65855  53.1584 108.4771 0000940 105.7693 254.3413 15.34400236 54020","mean_motion":15.34400236,"eccentricity":9.4e-5,"inclination_deg":53.1584,"raan_deg":108.4771,"arg_perigee_deg":105.7693,"mean_anomaly_deg":254.3413,"bstar":0.00062477,"rev_number":5402,"period_min":93.847743646984,"perigee_km":462.05949984882,"apogee_km":463.3455776821,"semimajor_km":6840.8395387655,"source":"CELESTRAK","updated_at":"2026-09-21T09:00:35.725339Z"}}